Retour au catalogue

STARLINK-11288

ActifCommunicationsVLEO
NORAD 61002·PAYLOAD·🇺🇸 United States

Lancé Sep 5, 2024 depuis Cape Canaveral Space Force Station

Loading…

Prochains Passages (prochaines 24 heures)

TLE

FraisSource: CelesTrak SupGP

Époque: Sep 14, 2026, 21:24 UTC

1 61002C 24158N   26257.89215278  .00056810  00000+0  46797-3 0  2575
2 61002  53.1571  68.4105 0001096  86.8035 255.6395 15.69680436    17

Suivez STARLINK-11288 en temps réel avec AllMySat

Download on the App Store